Regional Weather Roundup
Issued by NWS Boston, MA

Home | Current Version | Previous Version | Text Only | Print | Product List | Glossary On
Versions: 1 2 3 4 5 6 7 8 9 10 11 12 13 14 15 16 17 18 19 20 21 22 23 24 25 26 27 28 29 30 31 32 33 34 35 36 37 38 39 40 41 42 43 44 45 46 47 48 49 50
000
ASUS41 KBOX 222310
RWRBOX

REGIONAL WEATHER ROUNDUP
NATIONAL WEATHER SERVICE TAUNTON MA
700 PM EDT FRI MAY 22 2015

NOTE:  "FAIR" INDICATES FEW OR NO CLOUDS BELOW 12,000 FEET WITH NO
SIGNIFICANT WEATHER AND/OR OBSTRUCTIONS TO VISIBILITY.  THE FOLLOWING
OBSERVATION LOCATIONS DO NOT REPORT PRESENT WEATHER...PROVINCETOWN...
SMITHFIELD...BLOCK ISLAND...KEENE...AND OXFORD.

MAZALL-230000-
EASTERN MASSACHUSETTS

CITY           SKY/WX    TMP DP  RH WIND       PRES   REMARKS
BOSTON         MOSUNNY   69  27  20 W17G30    29.89R
BEVERLY        PTSUNNY   67  29  24 NW10G22   29.87R
LAWRENCE       PTSUNNY   65  27  23 NW12G25   29.89R
BEDFORD        SUNNY     65  23  20 W20G26    29.88R
BLUE HILL        N/A     65  29  25 W17G30    29.88R
NORWOOD        MOSUNNY   68  30  24 W13G24    29.89R
MARSHFIELD     PTCLDY    70  32  24 W9G18     29.89R
PLYMOUTH       CLEAR     68  28  22 W14G24    29.88R
TAUNTON        SUNNY     69  28  21 W10G23    29.89R
NEW BEDFORD    CLEAR     69  31  24 NW12G18   29.88R
$$

MAZALL-230000-
CAPE COD AND THE ISLANDS

CITY           SKY/WX    TMP DP  RH WIND       PRES   REMARKS
FALMOUTH       CLEAR     61  48  63 W14       29.89R
HYANNIS        PTCLDY    65  45  48 W10G22    29.86R
CHATHAM        PTCLDY    63  50  62 SW7G17    29.88R
PROVINCETOWN   PTCLDY    63  45  51 W10       29.87R
NANTUCKET      CLEAR     58  48  69 SW18      29.90R
MARTHAS VNYRD  PTCLDY    63  45  51 SW13G23   29.89R
$$

MAZALL-230000-
CENTRAL AND WESTERN MASSACHUSETTS

CITY           SKY/WX    TMP DP  RH WIND       PRES   REMARKS
WORCESTER      SUNNY     62  22  21 W17G26    29.94R
FITCHBURG      MOSUNNY   65  23  20 W15G25    29.92R
ORANGE         SUNNY     62  24  23 W9G22     29.94R
SPRINGFIELD    MOSUNNY   65  24  21 NW18G26   29.95R
WESTFIELD      SUNNY     65  25  22 NW20G29   29.96
NORTH ADAMS    MOSUNNY   58  25  28 W14G29    29.99R
PITTSFIELD     SUNNY     57  26  30 NW15G24   29.98R
$$

RIZALL-230000-
RHODE ISLAND

CITY           SKY/WX    TMP DP  RH WIND       PRES   REMARKS
PROVIDENCE     MOSUNNY   69  30  23 NW14G26   29.91R
NEWPORT        MOSUNNY   67  36  31 NW9G20    29.90R
BLOCK ISLAND   SUNNY     59  46  63 SW14G21   29.93R
SMITHFIELD     SUNNY     64  27  24 W13G22    29.92R
WESTERLY       SUNNY     70  33  25 VRB6      29.92R
$$

CTZALL-230000-
CONNECTICUT

CITY           SKY/WX    TMP DP  RH WIND       PRES   REMARKS
BRADLEY INTL   MOSUNNY   66  28  24 NW12      29.95R
HARTFORD       SUNNY     67  29  24 NW8G20    29.94R
BRIDGEPORT     SUNNY     71  32  23 NW15G25   29.94R
DANBURY        SUNNY     66  27  23 NW10G20   29.97R
GROTON         SUNNY     70  32  24 NW15G24   29.91R
NEW HAVEN      MOSUNNY   69  33  26 NW12G22   29.94R
CHESTER        FAIR      66  32  28 NW9       29.95R
MERIDEN        SUNNY     70  30  22 NW14G21   29.94R
WILLIMANTIC    SUNNY     67  29  24 NW10G20   29.94R
OXFORD         SUNNY     64  28  25 N12G23    29.97R
$$

MEZ002-015-021-024-NHZ003-005-008-011-012-014-VTZ005-008-230000-
NORTHERN NEW ENGLAND

CITY           SKY/WX    TMP DP  RH WIND       PRES   REMARKS
PORTLAND ME    PTSUNNY   62  31  31 NW13G22   29.89R
BANGOR ME      MOCLDY    53  50  89 W3        29.86R
CONCORD NH     MOSUNNY   61  26  26 NW16G29   29.91R
MANCHESTER NH  MOSUNNY   65  22  19 NW15G21   29.88R
NASHUA NH      MOSUNNY   67  25  20 NW16G22   29.90R
PORTSMOUTH NH  MOSUNNY   63  33  31 NW20      29.87R
JAFFREY NH     PTSUNNY   60  22  23 NW8G17    29.94R
KEENE NH       MOSUNNY   63  23  22 W7        29.94R
BURLINGTON VT  PTSUNNY   53  26  35 NW20G28   30.01R
MT. WASHINGTON PTSUNNY   25  21  86 NW54G62     N/A  WCI   3
$$

NYZ052-076-230000-
EASTERN NEW YORK

CITY           SKY/WX    TMP DP  RH WIND       PRES   REMARKS
ALBANY         MOSUNNY   60  26  27 W16G23    30.02R
NEW YORK CITY  MOSUNNY   71  38  29 W14G28    29.95R
$$

ANZALL-230000-
MARINE OBSERVATIONS

STATION/POSITION TIME  TEMP    WIND        PRES    VSBY  WAVE
                       AIR SEA DIR/SP/G                  HT/PER
                 (UTC) (F)     (DEG/KT/KT) (MB)    (MI)  (FT/S)
BOSTON BUOY      2250   62 54  290/ 14/ 17   N/A           2/ 3
BUZZARDS BAY     2300          240/ 22/ 23   N/A
NANTUCKET SOUND  2250   61 56  240/ 21/ 27   N/A           3/ 4
MASS BAY-STELLWA 2204   62 54  310/ 14/ 17   N/A    1 7/8  2/ 3
ISLE OF SHOALS   2300   60     330/ 23/ 25   N/A
S OF BLOCK IS    2208      53                N/A           5/ 5
$$

......................KEY.........................
  SKY/WX - SKY CONDITION/PRESENT WEATHER
  TMP    - TEMPERATURE IN FAHRENHEIT
  DWPT   - DEWPOINT IN FAHRENHEIT
  RH     - RELATIVE HUMIDITY IN PERCENT
  WIND   - DIRECTION AND SPEED IN MPH
  PRES   - MEAN SEA LEVEL PRESSURE IN INCHES OF HG
  WCI    - WIND CHILL INDEX
  VSB    - VISIBILITY IN MILES
  HX     - HEAT INDEX
  TC     - TEMPERATURE IN CELSIUS
  VRB    - VARIABLE WIND DIRECTION
  N/A    - NOT AVAILABLE


USA.gov is the U.S. government's official web portal to all federal, state and local government web resources and services.